DYE318 GMMH-DABC

Flight info

Callsign DYE318
Flight time 3h 37m
Altitude 38000
Route DKH L660 SOLNA UA600 ADM UG664 ERA/N0443F390 UL102 ESNAM UZ888 BABOR UA31 CSO
Aircraft A20N/M-SDE2E3FGHIRWXY/LB1

Departure

Time 2026-04-14 08:17
Airport Dakhla Airport (GMMH)

Arrival

Time 2026-04-14 11:55
Airport Mohamed Boudiaf International Airport (DABC)
Time Latitude Longitude Altitude Speed Heading
2026-04-14 08:03 23.71474 -15.92910 40 ft 0 kts 327°
2026-04-14 08:13 23.71475 -15.92913 13 ft 1 kts 302°
2026-04-14 08:13 23.71469 -15.92931 40 ft 8 kts 256°
2026-04-14 08:13 23.71486 -15.93037 40 ft 19 kts 292°
2026-04-14 08:14 23.71470 -15.93162 41 ft 19 kts 206°
2026-04-14 08:14 23.71334 -15.93227 40 ft 23 kts 202°
2026-04-14 08:14 23.71180 -15.93297 42 ft 25 kts 202°
2026-04-14 08:14 23.71022 -15.93369 42 ft 14 kts 202°
2026-04-14 08:15 23.70924 -15.93415 43 ft 17 kts 202°
2026-04-14 08:15 23.70806 -15.93468 43 ft 20 kts 203°
2026-04-14 08:15 23.70666 -15.93532 44 ft 23 kts 201°
2026-04-14 08:15 23.70549 -15.93618 44 ft 14 kts 268°
2026-04-14 08:16 23.70583 -15.93712 41 ft 15 kts 292°
2026-04-14 08:16 23.70673 -15.93725 43 ft 15 kts 21°
2026-04-14 08:16 23.70990 -15.93580 45 ft 89 kts 22°
2026-04-14 08:16 23.71769 -15.93231 151 ft 141 kts 24°
2026-04-14 08:17 23.72604 -15.92880 555 ft 118 kts 26°
2026-04-14 08:17 23.73481 -15.92485 301 ft 175 kts 24°
2026-04-14 08:17 23.74614 -15.91975 546 ft 181 kts 25°
2026-04-14 08:17 23.75831 -15.91387 978 ft 204 kts 26°
2026-04-14 08:18 23.77077 -15.90556 1660 ft 214 kts 46°
2026-04-14 08:18 23.77966 -15.89258 2578 ft 218 kts 49°
2026-04-14 08:18 23.79205 -15.88163 3150 ft 239 kts 35°
2026-04-14 08:18 23.80660 -15.87214 3959 ft 248 kts 33°
2026-04-14 08:19 23.82136 -15.86252 4873 ft 252 kts 33°
2026-04-14 08:19 23.83650 -15.85199 5727 ft 259 kts 35°
2026-04-14 08:19 23.85178 -15.84068 6427 ft 270 kts 36°
2026-04-14 08:19 23.86733 -15.82877 7198 ft 275 kts 36°
2026-04-14 08:20 23.88308 -15.81654 8003 ft 280 kts 36°
2026-04-14 08:20 23.89888 -15.80424 8760 ft 285 kts 36°
2026-04-14 08:20 23.91518 -15.79156 9550 ft 290 kts 36°
2026-04-14 08:20 23.93176 -15.77867 10304 ft 295 kts 36°
2026-04-14 08:21 23.94903 -15.76526 10650 ft 316 kts 35°
2026-04-14 08:21 23.96762 -15.75082 10883 ft 339 kts 35°
2026-04-14 08:21 23.98716 -15.73565 11420 ft 347 kts 35°
2026-04-14 08:21 24.00690 -15.72031 12170 ft 350 kts 35°
2026-04-14 08:22 24.02689 -15.70479 12902 ft 354 kts 35°
2026-04-14 08:22 24.04705 -15.68911 13631 ft 358 kts 35°
2026-04-14 08:22 24.06772 -15.67304 14303 ft 362 kts 35°
2026-04-14 08:22 24.08808 -15.65720 14924 ft 365 kts 35°
2026-04-14 08:23 24.10891 -15.64099 15546 ft 369 kts 35°
2026-04-14 08:23 24.12996 -15.62459 16166 ft 373 kts 35°
2026-04-14 08:23 24.15125 -15.60801 16784 ft 377 kts 35°
2026-04-14 08:23 24.17272 -15.59128 17398 ft 381 kts 36°
2026-04-14 08:24 24.19443 -15.57436 17985 ft 385 kts 36°
2026-04-14 08:24 24.21641 -15.55722 18543 ft 390 kts 36°
2026-04-14 08:24 24.23858 -15.53993 19096 ft 392 kts 36°
2026-04-14 08:24 24.26086 -15.52254 19614 ft 395 kts 36°
2026-04-14 08:25 24.28338 -15.50497 20150 ft 399 kts 36°
2026-04-14 08:25 24.30606 -15.48727 20671 ft 402 kts 36°
2026-04-14 08:25 24.32893 -15.46941 21186 ft 405 kts 37°
2026-04-14 08:25 24.35198 -15.45140 21719 ft 408 kts 37°
2026-04-14 08:26 24.37523 -15.43324 22209 ft 412 kts 37°
2026-04-14 08:26 24.39861 -15.41495 22740 ft 415 kts 37°
2026-04-14 08:26 24.42223 -15.39645 23243 ft 418 kts 38°
2026-04-14 08:26 24.44605 -15.37780 23727 ft 422 kts 38°
2026-04-14 08:27 24.47002 -15.35902 24131 ft 426 kts 37°
2026-04-14 08:27 24.49422 -15.34002 24516 ft 430 kts 37°
2026-04-14 08:27 24.51866 -15.32083 24898 ft 434 kts 37°
2026-04-14 08:27 24.54333 -15.30146 25282 ft 438 kts 36°
2026-04-14 08:28 24.56785 -15.28219 25646 ft 442 kts 36°
2026-04-14 08:28 24.59292 -15.26246 26035 ft 445 kts 36°
2026-04-14 08:28 24.61854 -15.24229 26399 ft 449 kts 35°
2026-04-14 08:28 24.64365 -15.22252 26775 ft 452 kts 35°
2026-04-14 08:29 24.66936 -15.20228 27119 ft 456 kts 35°
2026-04-14 08:29 24.69523 -15.18190 27531 ft 458 kts 34°
2026-04-14 08:29 24.72119 -15.16143 27888 ft 461 kts 34°
2026-04-14 08:29 24.74727 -15.14086 28273 ft 463 kts 34°
2026-04-14 08:30 24.77356 -15.12012 28611 ft 466 kts 34°
2026-04-14 08:30 24.79994 -15.09932 28962 ft 468 kts 34°
2026-04-14 08:30 24.82647 -15.07837 29287 ft 470 kts 34°
2026-04-14 08:30 24.85312 -15.05733 29607 ft 473 kts 34°
2026-04-14 08:31 24.87993 -15.03614 29937 ft 475 kts 34°
2026-04-14 08:31 24.93388 -14.99347 30510 ft 480 kts 34°
2026-04-14 08:31 24.96106 -14.97195 30781 ft 482 kts 34°
2026-04-14 08:32 24.98835 -14.95035 31068 ft 484 kts 34°
2026-04-14 08:32 25.01570 -14.92866 31367 ft 485 kts 34°
2026-04-14 08:32 25.04310 -14.90689 31728 ft 485 kts 33°
2026-04-14 08:32 25.07044 -14.88514 32094 ft 484 kts 33°
2026-04-14 08:33 25.09773 -14.86341 32451 ft 484 kts 33°
2026-04-14 08:33 25.12504 -14.84166 32792 ft 483 kts 33°
2026-04-14 08:33 25.15231 -14.81993 33126 ft 483 kts 33°
2026-04-14 08:33 25.17958 -14.79820 33455 ft 483 kts 32°
2026-04-14 08:34 25.20680 -14.77649 33781 ft 483 kts 32°
2026-04-14 08:34 25.23399 -14.75480 34083 ft 483 kts 32°
2026-04-14 08:34 25.26119 -14.73308 34374 ft 482 kts 32°
2026-04-14 08:34 25.28836 -14.71138 34638 ft 482 kts 32°
2026-04-14 08:35 25.31552 -14.68968 34883 ft 482 kts 32°
2026-04-14 08:35 25.34265 -14.66799 35136 ft 481 kts 32°
2026-04-14 08:35 25.36971 -14.64635 35398 ft 480 kts 32°
2026-04-14 08:35 25.39678 -14.62468 35644 ft 480 kts 32°
2026-04-14 08:36 25.42378 -14.60306 35870 ft 479 kts 32°
2026-04-14 08:36 25.45078 -14.58142 36108 ft 479 kts 32°
2026-04-14 08:36 25.47775 -14.55981 36339 ft 478 kts 32°
2026-04-14 08:36 25.50468 -14.53820 36547 ft 478 kts 32°
2026-04-14 08:37 25.53157 -14.51663 36745 ft 478 kts 32°
2026-04-14 08:37 25.55847 -14.49503 36962 ft 477 kts 32°
2026-04-14 08:37 25.58533 -14.47346 37169 ft 476 kts 32°
2026-04-14 08:37 25.61209 -14.45195 37372 ft 476 kts 32°
2026-04-14 08:38 25.63887 -14.43041 37549 ft 475 kts 32°
2026-04-14 08:38 25.66526 -14.40918 37723 ft 475 kts 32°
2026-04-14 08:38 25.69200 -14.38765 37900 ft 475 kts 32°
2026-04-14 08:38 25.71871 -14.36613 38082 ft 474 kts 32°
2026-04-14 08:39 25.77217 -14.32337 38149 ft 472 kts 31°
2026-04-14 08:39 25.82557 -14.28104 38156 ft 472 kts 31°
2026-04-14 08:40 25.87892 -14.23865 38153 ft 471 kts 31°
2026-04-14 08:40 25.93221 -14.19620 38154 ft 471 kts 31°
2026-04-14 08:41 25.98543 -14.15375 38157 ft 471 kts 32°
2026-04-14 08:41 26.03858 -14.11130 38156 ft 471 kts 32°
2026-04-14 08:42 26.09178 -14.06877 38158 ft 470 kts 32°
2026-04-14 08:42 26.14481 -14.02632 38158 ft 470 kts 32°
2026-04-14 08:43 26.19750 -13.98410 38154 ft 469 kts 32°
2026-04-14 08:43 26.25079 -13.94135 38152 ft 469 kts 32°
2026-04-14 08:44 26.30371 -13.89884 38152 ft 468 kts 32°
2026-04-14 08:44 26.35620 -13.85663 38151 ft 468 kts 32°
2026-04-14 08:45 26.40897 -13.81415 38148 ft 468 kts 32°
2026-04-14 08:45 26.46165 -13.77169 38143 ft 467 kts 32°
2026-04-14 08:46 26.51431 -13.72920 38140 ft 467 kts 32°
2026-04-14 08:46 26.56683 -13.68678 38137 ft 466 kts 32°
2026-04-14 08:47 26.61941 -13.64425 38137 ft 466 kts 32°
2026-04-14 08:47 26.67182 -13.60181 38135 ft 465 kts 33°
2026-04-14 08:48 26.72417 -13.55937 38130 ft 464 kts 33°
2026-04-14 08:48 26.77645 -13.51694 38130 ft 464 kts 33°
2026-04-14 08:49 26.82867 -13.47451 38125 ft 463 kts 33°
2026-04-14 08:49 26.88078 -13.43211 38125 ft 463 kts 33°
2026-04-14 08:50 26.93287 -13.38968 38125 ft 463 kts 33°
2026-04-14 08:50 26.98491 -13.34724 38125 ft 462 kts 33°
2026-04-14 08:51 27.03693 -13.30477 38127 ft 462 kts 33°
2026-04-14 08:51 27.08857 -13.26256 38131 ft 462 kts 33°
2026-04-14 08:52 27.14030 -13.21900 38131 ft 463 kts 39°
2026-04-14 08:52 27.18570 -13.16740 38129 ft 465 kts 44°
2026-04-14 08:53 27.23021 -13.11483 38127 ft 464 kts 44°
2026-04-14 08:53 27.27439 -13.06264 38121 ft 464 kts 44°
2026-04-14 08:54 27.31878 -13.01004 38116 ft 463 kts 44°
2026-04-14 08:54 27.36309 -12.95746 38110 ft 463 kts 44°
2026-04-14 08:55 27.40014 -12.91344 38109 ft 463 kts 44°
2026-04-14 08:55 27.44404 -12.86123 38099 ft 462 kts 44°
2026-04-14 08:56 27.48816 -12.80868 38101 ft 461 kts 44°
2026-04-14 08:56 27.53229 -12.75607 38098 ft 461 kts 44°
2026-04-14 08:57 27.57633 -12.70348 38098 ft 461 kts 44°
2026-04-14 08:57 27.62034 -12.65088 38095 ft 461 kts 45°
2026-04-14 08:58 27.66427 -12.59829 38096 ft 461 kts 44°
2026-04-14 08:58 27.70867 -12.54620 38092 ft 460 kts 43°
2026-04-14 08:59 27.75308 -12.49490 38091 ft 459 kts 44°
2026-04-14 08:59 27.79763 -12.44323 38091 ft 459 kts 44°
2026-04-14 09:00 27.84208 -12.39149 38088 ft 459 kts 44°
2026-04-14 09:00 27.88644 -12.33976 38089 ft 458 kts 44°
2026-04-14 09:01 27.93079 -12.28798 38089 ft 458 kts 44°
2026-04-14 09:01 27.97506 -12.23622 38088 ft 458 kts 44°
2026-04-14 09:02 28.01929 -12.18444 38082 ft 457 kts 44°
2026-04-14 09:02 28.06347 -12.13266 38084 ft 457 kts 44°
2026-04-14 09:03 28.10757 -12.08092 38084 ft 456 kts 44°
2026-04-14 09:03 28.15162 -12.02915 38081 ft 456 kts 44°
2026-04-14 09:04 28.19557 -11.97745 38081 ft 456 kts 44°
2026-04-14 09:04 28.23951 -11.92570 38080 ft 455 kts 44°
2026-04-14 09:05 28.28336 -11.87398 38077 ft 455 kts 44°
2026-04-14 09:05 28.32717 -11.82226 38077 ft 454 kts 44°
2026-04-14 09:06 28.37096 -11.77047 38071 ft 454 kts 44°
2026-04-14 09:06 28.41469 -11.71870 38070 ft 454 kts 44°
2026-04-14 09:07 28.45836 -11.66694 38068 ft 454 kts 44°
2026-04-14 09:07 28.50202 -11.61512 38065 ft 453 kts 44°
2026-04-14 09:08 28.54563 -11.56329 38064 ft 453 kts 44°
2026-04-14 09:08 28.58917 -11.51148 38057 ft 453 kts 44°
2026-04-14 09:09 28.63266 -11.45966 38055 ft 452 kts 44°
2026-04-14 09:09 28.67609 -11.40786 38058 ft 452 kts 43°
2026-04-14 09:10 28.71918 -11.35639 38061 ft 452 kts 43°
2026-04-14 09:10 28.76248 -11.30459 38069 ft 452 kts 43°
2026-04-14 09:11 28.80580 -11.25272 38074 ft 451 kts 43°
2026-04-14 09:11 28.84906 -11.20084 38082 ft 451 kts 43°
2026-04-14 09:12 28.89224 -11.14899 38086 ft 450 kts 43°
2026-04-14 09:12 28.93531 -11.09721 38092 ft 450 kts 43°
2026-04-14 09:13 28.97837 -11.04538 38090 ft 449 kts 43°
2026-04-14 09:13 29.02133 -10.99361 38093 ft 449 kts 43°
2026-04-14 09:14 29.06426 -10.94179 38094 ft 448 kts 43°
2026-04-14 09:14 29.10714 -10.88996 38092 ft 448 kts 43°
2026-04-14 09:15 29.14968 -10.83850 38089 ft 448 kts 44°
2026-04-14 09:15 29.19274 -10.78633 38080 ft 447 kts 44°
2026-04-14 09:16 29.23510 -10.73494 38077 ft 447 kts 44°
2026-04-14 09:16 29.27774 -10.68314 38079 ft 447 kts 44°
2026-04-14 09:17 29.32031 -10.63136 38075 ft 446 kts 44°
2026-04-14 09:17 29.36285 -10.57955 38076 ft 446 kts 43°
2026-04-14 09:18 29.40533 -10.52775 38064 ft 446 kts 44°
2026-04-14 09:18 29.44775 -10.47594 38066 ft 445 kts 44°
2026-04-14 09:19 29.49012 -10.42414 38059 ft 445 kts 44°
2026-04-14 09:19 29.53248 -10.37228 38060 ft 445 kts 44°
2026-04-14 09:20 29.57474 -10.32048 38077 ft 444 kts 44°
2026-04-14 09:20 29.61697 -10.26864 38062 ft 444 kts 44°
2026-04-14 09:21 29.65911 -10.21684 38069 ft 443 kts 44°
2026-04-14 09:21 29.70121 -10.16502 38079 ft 443 kts 44°
2026-04-14 09:22 29.74328 -10.11319 38076 ft 443 kts 44°
2026-04-14 09:22 29.78526 -10.06142 38078 ft 442 kts 44°
2026-04-14 09:23 29.82688 -10.00997 38075 ft 442 kts 44°
2026-04-14 09:23 29.86808 -9.95745 38076 ft 442 kts 45°
2026-04-14 09:24 29.90914 -9.90479 38072 ft 441 kts 45°
2026-04-14 09:24 29.95021 -9.85226 38066 ft 441 kts 45°
2026-04-14 09:25 29.99124 -9.79979 38065 ft 440 kts 45°
2026-04-14 09:25 30.03220 -9.74734 38056 ft 439 kts 45°
2026-04-14 09:26 30.07336 -9.69530 38054 ft 439 kts 44°
2026-04-14 09:26 30.11483 -9.64365 38051 ft 438 kts 44°
2026-04-14 09:27 30.15612 -9.59202 38048 ft 437 kts 44°
2026-04-14 09:27 30.19732 -9.54034 38046 ft 437 kts 44°
2026-04-14 09:28 30.23842 -9.48869 38048 ft 436 kts 44°
2026-04-14 09:28 30.27950 -9.43701 38045 ft 435 kts 44°
2026-04-14 09:29 30.31653 -9.38147 38048 ft 440 kts 57°
2026-04-14 09:29 30.33966 -9.31546 38051 ft 446 kts 70°
2026-04-14 09:30 30.35738 -9.24676 38046 ft 445 kts 70°
2026-04-14 09:30 30.37522 -9.17816 38046 ft 445 kts 70°
2026-04-14 09:31 30.39296 -9.10960 38042 ft 444 kts 70°
2026-04-14 09:31 30.41062 -9.04107 38041 ft 444 kts 70°
2026-04-14 09:32 30.42823 -8.97254 38046 ft 443 kts 70°
2026-04-14 09:33 30.45460 -8.87033 38047 ft 443 kts 69°
2026-04-14 09:33 30.47251 -8.80207 38053 ft 443 kts 69°
2026-04-14 09:34 30.49033 -8.73383 38056 ft 442 kts 70°
2026-04-14 09:34 30.50809 -8.66559 38061 ft 442 kts 70°
2026-04-14 09:35 30.52578 -8.59738 38066 ft 441 kts 70°
2026-04-14 09:35 30.54341 -8.52919 38070 ft 441 kts 70°
2026-04-14 09:36 30.56079 -8.46089 38073 ft 441 kts 70°
2026-04-14 09:36 30.57810 -8.39261 38079 ft 441 kts 70°
2026-04-14 09:37 30.59526 -8.32427 38086 ft 441 kts 70°
2026-04-14 09:37 30.61223 -8.25591 38091 ft 441 kts 70°
2026-04-14 09:38 30.62918 -8.18761 38098 ft 440 kts 70°
2026-04-14 09:38 30.64611 -8.11926 38102 ft 440 kts 70°
2026-04-14 09:39 30.66302 -8.05087 38109 ft 440 kts 70°
2026-04-14 09:39 30.67987 -7.98251 38120 ft 441 kts 70°
2026-04-14 09:40 30.69668 -7.91415 38129 ft 440 kts 70°
2026-04-14 09:40 30.71344 -7.84584 38133 ft 439 kts 70°
2026-04-14 09:41 30.73016 -7.77752 38142 ft 439 kts 70°
2026-04-14 09:41 30.74681 -7.70930 38156 ft 439 kts 70°
2026-04-14 09:42 30.76331 -7.64155 38164 ft 438 kts 70°
2026-04-14 09:42 30.77987 -7.57336 38162 ft 438 kts 70°
2026-04-14 09:43 30.79639 -7.50518 38162 ft 438 kts 70°
2026-04-14 09:43 30.81288 -7.43698 38173 ft 438 kts 70°
2026-04-14 09:44 30.82667 -7.37978 38169 ft 438 kts 70°
2026-04-14 09:44 30.84306 -7.31161 38175 ft 438 kts 70°
2026-04-14 09:45 30.85940 -7.24335 38180 ft 438 kts 70°
2026-04-14 09:45 30.87571 -7.17509 38195 ft 438 kts 69°
2026-04-14 09:46 30.89200 -7.10673 38201 ft 438 kts 69°
2026-04-14 09:46 30.90813 -7.03890 38209 ft 437 kts 69°
2026-04-14 09:47 30.92433 -6.97056 38210 ft 438 kts 69°
2026-04-14 09:47 30.94147 -6.90266 38215 ft 434 kts 64°
2026-04-14 09:48 30.96623 -6.83909 38214 ft 431 kts 59°
2026-04-14 09:48 30.99159 -6.77577 38209 ft 431 kts 60°
2026-04-14 09:49 31.01686 -6.71248 38202 ft 430 kts 59°
2026-04-14 09:49 31.04207 -6.64926 38191 ft 430 kts 59°
2026-04-14 09:50 31.06725 -6.58605 38181 ft 430 kts 59°
2026-04-14 09:50 31.09240 -6.52278 38173 ft 430 kts 59°
2026-04-14 09:51 31.11750 -6.45955 38170 ft 429 kts 59°
2026-04-14 09:51 31.14249 -6.39631 38164 ft 429 kts 59°
2026-04-14 09:52 31.16745 -6.33307 38169 ft 429 kts 59°
2026-04-14 09:52 31.19239 -6.26982 38167 ft 429 kts 59°
2026-04-14 09:53 31.21730 -6.20652 38158 ft 429 kts 59°
2026-04-14 09:53 31.24212 -6.14330 38159 ft 428 kts 59°
2026-04-14 09:54 31.26693 -6.08001 38160 ft 428 kts 59°
2026-04-14 09:54 31.29155 -6.01709 38157 ft 428 kts 59°
2026-04-14 09:55 31.31624 -5.95388 38162 ft 428 kts 59°
2026-04-14 09:55 31.34095 -5.89052 38158 ft 428 kts 59°
2026-04-14 09:56 31.36560 -5.82720 38161 ft 427 kts 59°
2026-04-14 09:56 31.39017 -5.76395 38163 ft 427 kts 59°
2026-04-14 09:57 31.41475 -5.70060 38167 ft 427 kts 59°
2026-04-14 09:57 31.43926 -5.63728 38164 ft 427 kts 59°
2026-04-14 09:58 31.46375 -5.57391 38167 ft 427 kts 58°
2026-04-14 09:58 31.48817 -5.51057 38170 ft 427 kts 58°
2026-04-14 09:59 31.51258 -5.44718 38172 ft 427 kts 58°
2026-04-14 09:59 31.53695 -5.38380 38175 ft 426 kts 58°
2026-04-14 10:00 31.56125 -5.32045 38178 ft 426 kts 58°
2026-04-14 10:00 31.58556 -5.25697 38183 ft 426 kts 58°
2026-04-14 10:01 31.60981 -5.19355 38186 ft 426 kts 58°
2026-04-14 10:01 31.63403 -5.13008 38186 ft 426 kts 58°
2026-04-14 10:02 31.65807 -5.06694 38192 ft 426 kts 58°
2026-04-14 10:02 31.68220 -5.00348 38193 ft 426 kts 58°
2026-04-14 10:03 31.70631 -4.93995 38198 ft 426 kts 58°
2026-04-14 10:03 31.73040 -4.87638 38200 ft 426 kts 58°
2026-04-14 10:04 31.75445 -4.81275 38187 ft 425 kts 58°
2026-04-14 10:04 31.77843 -4.74924 38213 ft 426 kts 58°
2026-04-14 10:05 31.80243 -4.68555 38215 ft 426 kts 58°
2026-04-14 10:05 31.82641 -4.62175 38242 ft 426 kts 58°
2026-04-14 10:06 31.85035 -4.55798 38249 ft 427 kts 58°
2026-04-14 10:06 31.87427 -4.49412 38262 ft 426 kts 58°
2026-04-14 10:07 31.89817 -4.43022 38268 ft 427 kts 58°
2026-04-14 10:07 31.92398 -4.36778 38267 ft 419 kts 50°
2026-04-14 10:08 31.95879 -4.31409 38266 ft 410 kts 41°
2026-04-14 10:08 31.99640 -4.26370 38251 ft 409 kts 41°
2026-04-14 10:09 32.03366 -4.21353 38241 ft 409 kts 41°
2026-04-14 10:09 32.07114 -4.16305 38234 ft 409 kts 41°
2026-04-14 10:10 32.10854 -4.11261 38216 ft 408 kts 41°
2026-04-14 10:10 32.14589 -4.06218 38203 ft 410 kts 41°
2026-04-14 10:11 32.18331 -4.01157 38199 ft 409 kts 41°
2026-04-14 10:11 32.22065 -3.96100 38205 ft 409 kts 41°
2026-04-14 10:12 32.25796 -3.91035 38195 ft 409 kts 41°
2026-04-14 10:12 32.29532 -3.85960 38193 ft 409 kts 41°
2026-04-14 10:13 32.33267 -3.80886 38193 ft 409 kts 41°
2026-04-14 10:13 32.36995 -3.75811 38195 ft 408 kts 41°
2026-04-14 10:14 32.40721 -3.70734 38193 ft 409 kts 41°
2026-04-14 10:14 32.44443 -3.65652 38193 ft 408 kts 41°
2026-04-14 10:15 32.48162 -3.60568 38191 ft 408 kts 41°
2026-04-14 10:15 32.51882 -3.55477 38193 ft 409 kts 41°
2026-04-14 10:16 32.55600 -3.50379 38189 ft 409 kts 41°
2026-04-14 10:16 32.59324 -3.45267 38198 ft 409 kts 41°
2026-04-14 10:17 32.63039 -3.40159 38201 ft 409 kts 41°
2026-04-14 10:17 32.66759 -3.35040 38194 ft 409 kts 41°
2026-04-14 10:18 32.72335 -3.27352 38195 ft 410 kts 41°
2026-04-14 10:18 32.76047 -3.22221 38193 ft 410 kts 41°
2026-04-14 10:19 32.79766 -3.17078 38198 ft 410 kts 41°
2026-04-14 10:19 32.83476 -3.11936 38200 ft 410 kts 41°
2026-04-14 10:20 32.87196 -3.06778 38203 ft 411 kts 41°
2026-04-14 10:20 32.90896 -3.01625 38200 ft 408 kts 41°
2026-04-14 10:21 32.94616 -2.96456 38201 ft 413 kts 41°
2026-04-14 10:21 32.98336 -2.91276 38198 ft 411 kts 41°
2026-04-14 10:22 33.02061 -2.86084 38206 ft 412 kts 41°
2026-04-14 10:22 33.05786 -2.80882 38205 ft 413 kts 42°
2026-04-14 10:23 33.09490 -2.75700 38209 ft 414 kts 42°
2026-04-14 10:23 33.13252 -2.70428 38213 ft 415 kts 42°
2026-04-14 10:24 33.16972 -2.65205 38212 ft 417 kts 42°
2026-04-14 10:24 33.20749 -2.59892 38213 ft 417 kts 42°
2026-04-14 10:25 33.24488 -2.54635 38215 ft 419 kts 42°
2026-04-14 10:25 33.28265 -2.49319 38213 ft 420 kts 42°
2026-04-14 10:26 33.32053 -2.43974 38212 ft 422 kts 42°
2026-04-14 10:26 33.35844 -2.38614 38214 ft 423 kts 42°
2026-04-14 10:27 33.39653 -2.33223 38212 ft 425 kts 43°
2026-04-14 10:27 33.43461 -2.27823 38209 ft 424 kts 43°
2026-04-14 10:28 33.47277 -2.22405 38231 ft 426 kts 43°
2026-04-14 10:28 33.51094 -2.16977 38216 ft 426 kts 43°
2026-04-14 10:29 33.54928 -2.11519 38220 ft 428 kts 43°
2026-04-14 10:29 33.58764 -2.06047 38220 ft 428 kts 43°
2026-04-14 10:30 33.61955 -2.01491 38220 ft 430 kts 43°
2026-04-14 10:30 33.65799 -1.95992 38223 ft 430 kts 43°
2026-04-14 10:31 33.69650 -1.90477 38222 ft 431 kts 43°
2026-04-14 10:31 33.73497 -1.84957 38219 ft 431 kts 43°
2026-04-14 10:32 33.77343 -1.79428 38220 ft 432 kts 43°
2026-04-14 10:32 33.81189 -1.73893 38218 ft 431 kts 43°
2026-04-14 10:33 33.85040 -1.68348 38220 ft 432 kts 43°
2026-04-14 10:33 33.88889 -1.62798 38206 ft 432 kts 43°
2026-04-14 10:34 33.94863 -1.54683 38208 ft 432 kts 41°
2026-04-14 10:35 33.98890 -1.49309 38215 ft 433 kts 41°
2026-04-14 10:35 34.02920 -1.43886 38206 ft 435 kts 41°
2026-04-14 10:36 34.06962 -1.38428 38208 ft 437 kts 41°
2026-04-14 10:36 34.11018 -1.32940 38206 ft 439 kts 42°
2026-04-14 10:37 34.15079 -1.27433 38209 ft 441 kts 42°
2026-04-14 10:37 34.19161 -1.21893 38204 ft 441 kts 42°
2026-04-14 10:38 34.23239 -1.16347 38202 ft 443 kts 42°
2026-04-14 10:38 34.27306 -1.10807 38201 ft 444 kts 42°
2026-04-14 10:39 34.31396 -1.05227 38203 ft 445 kts 42°
2026-04-14 10:39 34.35509 -0.99610 38203 ft 446 kts 43°
2026-04-14 10:40 34.39619 -0.93985 38198 ft 447 kts 43°
2026-04-14 10:40 34.43742 -0.88333 38201 ft 448 kts 43°
2026-04-14 10:41 34.47869 -0.82667 38192 ft 450 kts 43°
2026-04-14 10:41 34.52013 -0.76968 38194 ft 451 kts 43°
2026-04-14 10:42 34.56161 -0.71256 38197 ft 452 kts 43°
2026-04-14 10:42 34.60321 -0.65515 38195 ft 452 kts 43°
2026-04-14 10:43 34.64474 -0.59776 38196 ft 453 kts 43°
2026-04-14 10:43 34.68643 -0.54006 38193 ft 454 kts 44°
2026-04-14 10:44 34.72804 -0.48236 38193 ft 455 kts 44°
2026-04-14 10:44 34.76975 -0.42443 38187 ft 455 kts 44°
2026-04-14 10:45 34.81142 -0.36645 38196 ft 456 kts 44°
2026-04-14 10:45 34.85292 -0.30863 38186 ft 456 kts 44°
2026-04-14 10:46 34.89469 -0.25033 38189 ft 457 kts 44°
2026-04-14 10:46 34.93644 -0.19195 38188 ft 457 kts 44°
2026-04-14 10:47 34.97815 -0.13354 38177 ft 458 kts 44°
2026-04-14 10:47 35.01994 -0.07491 38181 ft 457 kts 44°
2026-04-14 10:48 35.06162 -0.01633 38181 ft 458 kts 45°
2026-04-14 10:48 35.10341 0.04249 38184 ft 458 kts 44°
2026-04-14 10:49 35.14511 0.10129 38186 ft 458 kts 45°
2026-04-14 10:49 35.18685 0.16025 38184 ft 458 kts 45°
2026-04-14 10:50 35.22854 0.21924 38184 ft 459 kts 45°
2026-04-14 10:50 35.27029 0.27841 38182 ft 459 kts 45°
2026-04-14 10:51 35.31198 0.33760 38177 ft 459 kts 45°
2026-04-14 10:51 35.35372 0.39696 38173 ft 459 kts 45°
2026-04-14 10:52 35.39539 0.45633 38167 ft 460 kts 45°
2026-04-14 10:52 35.43709 0.51583 38163 ft 460 kts 45°
2026-04-14 10:53 35.47871 0.57534 38159 ft 460 kts 45°
2026-04-14 10:53 35.52039 0.63503 38161 ft 460 kts 45°
2026-04-14 10:54 35.56202 0.69475 38161 ft 461 kts 46°
2026-04-14 10:54 35.60368 0.75463 38160 ft 461 kts 46°
2026-04-14 10:55 35.64530 0.81455 38156 ft 461 kts 46°
2026-04-14 10:55 35.68666 0.87421 38155 ft 461 kts 46°
2026-04-14 10:56 35.72828 0.93432 38152 ft 462 kts 46°
2026-04-14 10:56 35.76997 0.99466 38147 ft 463 kts 46°
2026-04-14 10:57 35.81165 1.05509 38143 ft 464 kts 46°
2026-04-14 10:57 35.85348 1.11583 38262 ft 466 kts 46°
2026-04-14 10:57 35.87439 1.14625 38454 ft 466 kts 46°
2026-04-14 10:58 35.89537 1.17679 38618 ft 467 kts 46°
2026-04-14 10:58 35.91635 1.20734 38780 ft 467 kts 46°
2026-04-14 10:58 35.93736 1.23798 38927 ft 467 kts 46°
2026-04-14 10:58 35.95836 1.26863 39075 ft 468 kts 46°
2026-04-14 10:59 35.97933 1.29927 39138 ft 469 kts 47°
2026-04-14 10:59 36.02135 1.36075 39149 ft 467 kts 47°
2026-04-14 11:00 36.06326 1.42213 39116 ft 469 kts 47°
2026-04-14 11:00 36.08430 1.45312 38740 ft 470 kts 49°
2026-04-14 11:00 36.10245 1.48666 38270 ft 471 kts 60°
2026-04-14 11:00 36.11565 1.52350 37943 ft 469 kts 70°
2026-04-14 11:01 36.12368 1.56275 37733 ft 472 kts 81°
2026-04-14 11:01 36.13315 1.64352 37994 ft 475 kts 81°
2026-04-14 11:01 36.13803 1.68400 38127 ft 477 kts 81°
2026-04-14 11:02 36.14291 1.72460 38298 ft 477 kts 81°
2026-04-14 11:02 36.14774 1.76517 38497 ft 477 kts 81°
2026-04-14 11:02 36.15254 1.80584 38690 ft 477 kts 81°
2026-04-14 11:02 36.15731 1.84648 38869 ft 477 kts 81°
2026-04-14 11:03 36.16206 1.88703 39005 ft 477 kts 81°
2026-04-14 11:03 36.16680 1.92771 39118 ft 478 kts 81°
2026-04-14 11:03 36.17152 1.96835 39126 ft 477 kts 81°
2026-04-14 11:04 36.18092 2.04950 39137 ft 477 kts 81°
2026-04-14 11:04 36.19031 2.13086 39120 ft 478 kts 81°
2026-04-14 11:05 36.19964 2.21220 39117 ft 476 kts 81°
2026-04-14 11:05 36.20889 2.29331 39113 ft 476 kts 82°
2026-04-14 11:06 36.21809 2.37444 39128 ft 476 kts 82°
2026-04-14 11:06 36.22724 2.45562 39113 ft 475 kts 82°
2026-04-14 11:07 36.23627 2.53627 39111 ft 476 kts 82°
2026-04-14 11:07 36.24531 2.61751 39113 ft 477 kts 82°
2026-04-14 11:08 36.25432 2.69904 39109 ft 478 kts 82°
2026-04-14 11:08 36.26324 2.78055 39107 ft 478 kts 82°
2026-04-14 11:09 36.27215 2.86240 39108 ft 481 kts 82°
2026-04-14 11:09 36.28105 2.94467 39106 ft 481 kts 82°
2026-04-14 11:10 36.29428 3.06802 39109 ft 481 kts 83°
2026-04-14 11:10 36.30301 3.15010 39109 ft 480 kts 83°
2026-04-14 11:11 36.31166 3.23200 39104 ft 479 kts 83°
2026-04-14 11:11 36.32025 3.31385 39101 ft 479 kts 83°
2026-04-14 11:12 36.32879 3.39581 39101 ft 480 kts 83°
2026-04-14 11:12 36.33729 3.47779 39107 ft 479 kts 83°
2026-04-14 11:13 36.34570 3.55963 39103 ft 478 kts 83°
2026-04-14 11:13 36.35405 3.64137 39104 ft 477 kts 83°
2026-04-14 11:14 36.36227 3.72242 39112 ft 477 kts 83°
2026-04-14 11:14 36.37049 3.80400 39112 ft 476 kts 83°
2026-04-14 11:15 36.37864 3.88547 39115 ft 475 kts 83°
2026-04-14 11:15 36.38675 3.96697 39111 ft 475 kts 84°
2026-04-14 11:16 36.39477 4.04821 39113 ft 475 kts 84°
2026-04-14 11:16 36.40274 4.12955 39113 ft 474 kts 84°
2026-04-14 11:17 36.41064 4.21071 39114 ft 474 kts 84°
2026-04-14 11:17 36.41850 4.29204 39112 ft 474 kts 84°
2026-04-14 11:18 36.42497 4.35952 39116 ft 473 kts 84°
2026-04-14 11:18 36.43271 4.44065 39113 ft 473 kts 84°
2026-04-14 11:19 36.44039 4.52182 39109 ft 473 kts 84°
2026-04-14 11:19 36.44803 4.60309 39109 ft 474 kts 84°
2026-04-14 11:20 36.45560 4.68436 39111 ft 473 kts 84°
2026-04-14 11:20 36.46312 4.76552 39112 ft 473 kts 84°
2026-04-14 11:21 36.47057 4.84671 39108 ft 473 kts 84°
2026-04-14 11:21 36.47799 4.92803 39105 ft 473 kts 84°
2026-04-14 11:22 36.48182 5.00944 39109 ft 472 kts 94°
2026-04-14 11:22 36.47396 5.09028 39108 ft 471 kts 100°
2026-04-14 11:23 36.46464 5.17072 39108 ft 471 kts 99°
2026-04-14 11:23 36.45530 5.25123 39104 ft 471 kts 99°
2026-04-14 11:24 36.44586 5.33169 39094 ft 470 kts 99°
2026-04-14 11:24 36.43638 5.41199 39099 ft 471 kts 100°
2026-04-14 11:25 36.42682 5.49240 39094 ft 471 kts 100°
2026-04-14 11:25 36.41727 5.57226 39099 ft 470 kts 100°
2026-04-14 11:26 36.40762 5.65250 39103 ft 471 kts 100°
2026-04-14 11:26 36.39791 5.73284 39095 ft 471 kts 100°
2026-04-14 11:27 36.38815 5.81314 39096 ft 471 kts 100°
2026-04-14 11:27 36.37844 5.89344 39079 ft 470 kts 99°
2026-04-14 11:28 36.37380 5.93345 38848 ft 468 kts 99°
2026-04-14 11:28 36.36918 5.97345 38226 ft 469 kts 99°
2026-04-14 11:28 36.36452 6.01365 37361 ft 473 kts 99°
2026-04-14 11:28 36.35976 6.05429 36435 ft 478 kts 99°
2026-04-14 11:29 36.35493 6.09528 35521 ft 483 kts 99°
2026-04-14 11:29 36.35006 6.13653 34704 ft 484 kts 99°
2026-04-14 11:29 36.34516 6.17786 33906 ft 484 kts 99°
2026-04-14 11:29 36.34025 6.21920 33014 ft 484 kts 99°
2026-04-14 11:30 36.33533 6.26037 32132 ft 483 kts 99°
2026-04-14 11:30 36.33040 6.30150 31263 ft 482 kts 99°
2026-04-14 11:30 36.32547 6.34251 30471 ft 479 kts 99°
2026-04-14 11:30 36.32055 6.38328 29551 ft 477 kts 98°
2026-04-14 11:31 36.31565 6.42386 28676 ft 475 kts 98°
2026-04-14 11:31 36.31077 6.46423 27880 ft 471 kts 99°
2026-04-14 11:31 36.30593 6.50418 27117 ft 467 kts 99°
2026-04-14 11:31 36.29882 6.54314 26349 ft 462 kts 110°
2026-04-14 11:32 36.28551 6.57915 25633 ft 457 kts 122°
2026-04-14 11:32 36.26687 6.60992 24947 ft 451 kts 135°
2026-04-14 11:32 36.24292 6.63518 24258 ft 443 kts 148°
2026-04-14 11:32 36.21578 6.65257 23596 ft 436 kts 161°
2026-04-14 11:33 36.18754 6.66433 22853 ft 431 kts 165°
2026-04-14 11:33 36.15901 6.67515 22169 ft 426 kts 165°
2026-04-14 11:33 36.13109 6.68700 21475 ft 423 kts 158°
2026-04-14 11:34 36.08503 6.73120 20102 ft 423 kts 129°
2026-04-14 11:34 36.07017 6.76239 19447 ft 422 kts 115°
2026-04-14 11:34 36.05920 6.79585 18807 ft 418 kts 115°
2026-04-14 11:34 36.04468 6.82663 18178 ft 412 kts 127°
2026-04-14 11:35 36.02890 6.85604 17470 ft 409 kts 124°
2026-04-14 11:35 36.01384 6.88573 16789 ft 406 kts 123°
2026-04-14 11:35 35.99895 6.91514 16122 ft 403 kts 123°
2026-04-14 11:35 35.98414 6.94434 15462 ft 399 kts 123°
2026-04-14 11:36 35.96944 6.97325 14830 ft 396 kts 123°
2026-04-14 11:36 35.95483 7.00187 14201 ft 393 kts 123°
2026-04-14 11:36 35.94033 7.03026 13551 ft 390 kts 123°
2026-04-14 11:36 35.92583 7.05846 12859 ft 388 kts 123°
2026-04-14 11:37 35.91134 7.08629 12185 ft 385 kts 123°
2026-04-14 11:37 35.89677 7.11400 11523 ft 383 kts 123°
2026-04-14 11:37 35.88219 7.14137 10919 ft 380 kts 123°
2026-04-14 11:37 35.86735 7.16744 10518 ft 362 kts 133°
2026-04-14 11:38 35.84827 7.18599 10181 ft 343 kts 154°
2026-04-14 11:38 35.82606 7.19410 9835 ft 329 kts 178°
2026-04-14 11:38 35.80406 7.19114 9463 ft 312 kts 202°
2026-04-14 11:38 35.78595 7.17824 9090 ft 293 kts 227°
2026-04-14 11:39 35.77500 7.15870 8721 ft 273 kts 252°
2026-04-14 11:39 35.76884 7.13715 8365 ft 262 kts 255°
2026-04-14 11:39 35.76307 7.11628 8007 ft 253 kts 255°
2026-04-14 11:39 35.75743 7.09605 7655 ft 248 kts 255°
2026-04-14 11:40 35.75174 7.07577 7308 ft 253 kts 255°
2026-04-14 11:40 35.74603 7.05532 6969 ft 253 kts 255°
2026-04-14 11:40 35.74026 7.03516 6750 ft 246 kts 255°
2026-04-14 11:40 35.73458 7.01525 6703 ft 249 kts 255°
2026-04-14 11:41 35.72885 6.99514 6700 ft 249 kts 255°
2026-04-14 11:41 35.72534 6.97475 6700 ft 242 kts 276°
2026-04-14 11:41 35.72765 6.95424 6700 ft 242 kts 282°
2026-04-14 11:41 35.73171 6.93438 6702 ft 238 kts 295°
2026-04-14 11:42 35.73939 6.91647 6697 ft 237 kts 301°
2026-04-14 11:42 35.74755 6.89882 6696 ft 238 kts 302°
2026-04-14 11:42 35.75686 6.88223 6700 ft 235 kts 319°
2026-04-14 11:42 35.76968 6.86954 6697 ft 237 kts 322°
2026-04-14 11:43 35.78263 6.85718 6696 ft 234 kts 323°
2026-04-14 11:43 35.79550 6.84495 6698 ft 234 kts 325°
2026-04-14 11:43 35.80992 6.83576 6706 ft 237 kts 336°
2026-04-14 11:43 35.82610 6.82752 6710 ft 262 kts 337°
2026-04-14 11:44 35.84304 6.81935 6699 ft 259 kts 338°
2026-04-14 11:44 35.85966 6.81155 6700 ft 253 kts 339°
2026-04-14 11:44 35.87601 6.80370 6702 ft 251 kts 338°
2026-04-14 11:44 35.89240 6.79567 6703 ft 256 kts 338°
2026-04-14 11:45 35.90912 6.78780 6695 ft 256 kts 339°
2026-04-14 11:45 35.92569 6.78009 6702 ft 253 kts 339°
2026-04-14 11:45 35.94212 6.77244 6699 ft 253 kts 339°
2026-04-14 11:45 35.95863 6.76474 6700 ft 254 kts 338°
2026-04-14 11:46 35.97478 6.75722 6702 ft 240 kts 339°
2026-04-14 11:46 35.98980 6.75022 6709 ft 222 kts 338°
2026-04-14 11:46 36.00384 6.74368 6703 ft 209 kts 338°
2026-04-14 11:46 36.01695 6.73756 6703 ft 194 kts 338°
2026-04-14 11:47 36.02886 6.73200 6743 ft 166 kts 338°
2026-04-14 11:47 36.03840 6.72756 6694 ft 132 kts 338°
2026-04-14 11:47 36.04629 6.72388 6709 ft 115 kts 337°
2026-04-14 11:47 36.05399 6.72025 6705 ft 120 kts 337°
2026-04-14 11:48 36.06175 6.71663 6714 ft 119 kts 338°
2026-04-14 11:48 36.06967 6.71293 6633 ft 122 kts 338°
2026-04-14 11:48 36.07772 6.70916 6483 ft 123 kts 338°
2026-04-14 11:48 36.08550 6.70554 6326 ft 119 kts 337°
2026-04-14 11:49 36.09329 6.70190 6166 ft 122 kts 338°
2026-04-14 11:49 36.10107 6.69826 6005 ft 118 kts 338°
2026-04-14 11:49 36.10880 6.69464 5833 ft 121 kts 338°
2026-04-14 11:49 36.11676 6.69092 5667 ft 124 kts 338°
2026-04-14 11:50 36.12486 6.68713 5489 ft 124 kts 338°
2026-04-14 11:50 36.13266 6.68348 5315 ft 116 kts 338°
2026-04-14 11:50 36.14017 6.67996 5153 ft 117 kts 338°
2026-04-14 11:51 36.15556 6.67276 4824 ft 116 kts 338°
2026-04-14 11:51 36.16311 6.66922 4664 ft 116 kts 337°
2026-04-14 11:51 36.17054 6.66574 4485 ft 114 kts 337°
2026-04-14 11:51 36.17811 6.66218 4332 ft 118 kts 337°
2026-04-14 11:52 36.18584 6.65857 4156 ft 119 kts 336°
2026-04-14 11:52 36.19370 6.65489 3978 ft 123 kts 336°
2026-04-14 11:52 36.20161 6.65117 3813 ft 121 kts 338°
2026-04-14 11:52 36.20936 6.64754 3627 ft 116 kts 338°
2026-04-14 11:53 36.21666 6.64413 3441 ft 108 kts 338°
2026-04-14 11:53 36.22353 6.64090 3279 ft 108 kts 338°
2026-04-14 11:53 36.23082 6.63748 3094 ft 116 kts 339°
2026-04-14 11:53 36.23847 6.63388 2898 ft 117 kts 339°
2026-04-14 11:54 36.24606 6.63033 2737 ft 116 kts 340°
2026-04-14 11:54 36.25357 6.62680 2558 ft 115 kts 339°
2026-04-14 11:54 36.26097 6.62332 2410 ft 113 kts 339°
2026-04-14 11:54 36.26814 6.61996 2323 ft 98 kts 340°
2026-04-14 11:55 36.27035 6.61895 2323 ft 0 kts 340°
2026-04-14 11:55 36.27063 6.61882 2323 ft 7 kts 340°
2026-04-14 11:55 36.27122 6.61856 2325 ft 10 kts 340°
2026-04-14 11:55 36.27222 6.61812 2323 ft 21 kts 340°
2026-04-14 11:56 36.27362 6.61747 2325 ft 22 kts 339°
2026-04-14 11:56 36.27504 6.61681 2325 ft 21 kts 340°
2026-04-14 11:56 36.27642 6.61619 2326 ft 21 kts 340°
2026-04-14 11:56 36.27782 6.61555 2325 ft 22 kts 346°
2026-04-14 11:57 36.27869 6.61660 2322 ft 21 kts 68°
2026-04-14 11:57 36.27925 6.61831 2309 ft 19 kts 68°
2026-04-14 11:57 36.27964 6.61959 2304 ft 6 kts 65°
2026-04-14 11:57 36.27998 6.62014 2304 ft 10 kts 48°
2026-04-14 11:58 36.28051 6.62083 2298 ft 12 kts 43°
2026-04-14 11:58 36.28111 6.62130 2302 ft 9 kts 32°
2026-04-14 11:58 36.28158 6.62182 2305 ft 10 kts 46°
2026-04-14 11:58 36.28185 6.62216 2311 ft 0 kts 45°